K8RRT Weather Reports


time (UTC)temp
C
wind
direction
speed
KPH
gust
KPH
rain 1hr
cm
rain 24hr
cm
rain mn
cm
humidity
%
barometer
mb
20260508141331 15 248 6.4 8.0 0.00 0.00 0.00 57 1012.6
20260508140829 15 235 4.8 4.8 0.00 0.00 0.00 59 1012.5
20260508140326 15 306 4.8 4.8 0.00 0.00 0.00 60 1012.5
20260508135821 15 270 6.4 8.0 0.00 0.00 0.00 59 1012.6
20260508135318 13 286 3.2 4.8 0.00 0.00 0.00 61 1012.5
20260508134814 13 242 4.8 8.0 0.00 0.00 0.00 61 1012.8
20260508134311 13 239 4.8 4.8 0.00 0.00 0.00 61 1012.6
20260508133808 13 232 4.8 4.8 0.00 0.00 0.00 62 1012.8
20260508133306 12 275 4.8 4.8 0.00 0.00 0.00 61 1012.8
20260508132803 12 231 3.2 3.2 0.00 0.00 0.00 62 1012.5
20260508132300 12 273 3.2 3.2 0.00 0.00 0.00 64 1012.5
20260508131756 12 257 4.8 8.0 0.00 0.00 0.00 63 1012.8
20260508131252 12 252 8.0 11.3 0.00 0.00 0.00 63 1012.8
20260508130749 11 242 6.4 9.7 0.00 0.00 0.00 64 1012.7
20260508130246 11 270 1.6 3.2 0.00 0.00 0.00 67 1012.8
20260508125742 11 247 4.8 4.8 0.00 0.00 0.00 68 1012.6
20260508125238 11 251 1.6 3.2 0.00 0.00 0.00 72 1012.8
20260508124737 10 277 6.4 8.0 0.00 0.00 0.00 73 1012.8
20260508124233 9 276 1.6 3.2 0.00 0.00 0.00 82 1012.7
20260508123732 8 333 3.2 3.2 0.00 0.00 0.00 88 1012.8
20260508123229 8 16 0.0 0.0 0.00 0.00 0.00 94 1012.5
20260508122725 7 358 0.0 0.0 0.00 0.00 0.00 96 1012.8
20260508122222 7 47 0.0 0.0 0.00 0.00 0.00 99 1012.7
20260508121720 6 20 0.0 1.6 0.00 0.00 0.00 99 1012.5
20260508121219 6 20 0.0 1.6 0.00 0.00 0.00 99 1012.7
20260508120715 6 26 0.0 0.0 0.00 0.00 0.00 99 1012.6
20260508120213 5 24 0.0 0.0 0.00 0.00 0.00 99 1012.6
20260508115711 5 37 0.0 0.0 0.00 0.00 0.00 99 1012.7
20260508115208 6 101 0.0 0.0 0.00 0.00 0.00 99 1012.4
20260508114704 6 128 0.0 0.0 0.00 0.00 0.00 99 1012.6
20260508114201 5 149 0.0 0.0 0.00 0.00 0.00 99 1012.8
20260508113658 5 178 0.0 0.0 0.00 0.00 0.00 99 1012.7
20260508113156 5 144 0.0 0.0 0.00 0.00 0.00 99 1012.7
20260508112652 5 144 0.0 0.0 0.00 0.00 0.00 99 1012.4
20260508112149 6 145 0.0 0.0 0.00 0.00 0.00 99 1012.3
20260508111645 4 145 0.0 0.0 0.00 0.00 0.00 99 1012.4
20260508111143 2 145 0.0 0.0 0.00 0.00 0.00 99 1012.5
20260508110640 2 147 0.0 0.0 0.00 0.00 0.00 99 1012.4
20260508110137 1 149 0.0 0.0 0.00 0.00 0.00 99 1012.2
20260508105632 1 149 0.0 0.0 0.00 0.00 0.00 99 1012.2
20260508105129 1 148 0.0 0.0 0.00 0.00 0.00 99 1012.3
20260508104627 1 149 0.0 0.0 0.00 0.00 0.00 99 1012.2
20260508104123 1 149 0.0 0.0 0.00 0.00 0.00 99 1012.2
20260508103621 1 148 0.0 0.0 0.00 0.00 0.00 99 1012.1
20260508103118 1 149 0.0 0.0 0.00 0.00 0.00 99 1012.3
20260508102615 1 148 0.0 0.0 0.00 0.00 0.00 99 1012.1
20260508102113 1 148 0.0 0.0 0.00 0.00 0.00 99 1012.1
20260508101610 1 135 0.0 0.0 0.00 0.00 0.00 99 1011.9
20260508101107 1 136 0.0 0.0 0.00 0.00 0.00 99 1011.7
20260508100605 1 135 0.0 0.0 0.00 0.00 0.00 99 1011.9
20260508095558 1 135 0.0 1.6 0.00 0.00 0.00 99 1011.8
20260508095055 1 130 0.0 0.0 0.00 0.00 0.00 99 1012.0
20260508094552 1 164 0.0 0.0 0.00 0.00 0.00 99 1011.8
20260508094049 1 164 0.0 0.0 0.00 0.00 0.00 99 1011.7
20260508093547 1 164 0.0 0.0 0.00 0.00 0.00 99 1011.7
20260508093044 1 165 0.0 0.0 0.00 0.00 0.00 99 1011.7
20260508092541 1 165 0.0 0.0 0.00 0.00 0.00 99 1011.8
20260508092040 1 165 0.0 0.0 0.00 0.00 0.00 99 1011.8
20260508091537 1 165 0.0 0.0 0.00 0.00 0.00 99 1011.9
20260508091034 1 165 0.0 0.0 0.00 0.00 0.00 99 1011.8
20260508090532 1 165 0.0 0.0 0.00 0.00 0.00 99 1011.7
20260508090028 1 165 0.0 0.0 0.00 0.00 0.00 99 1011.8
20260508085525 1 165 0.0 0.0 0.00 0.00 0.00 99 1011.6
20260508085022 1 165 0.0 0.0 0.00 0.00 0.00 99 1011.7
20260508084519 1 165 0.0 0.0 0.00 0.00 0.00 99 1011.7
20260508084016 2 165 0.0 0.0 0.00 0.00 0.00 99 1011.7
20260508083513 2 164 0.0 0.0 0.00 0.00 0.00 99 1011.5
20260508083009 2 164 0.0 0.0 0.00 0.00 0.00 99 1011.6
20260508082505 1 165 0.0 0.0 0.00 0.00 0.00 99 1011.7
20260508082003 1 165 0.0 0.0 0.00 0.00 0.00 99 1011.7
20260508081500 1 165 0.0 0.0 0.00 0.00 0.00 99 1011.6
20260508080956 1 165 0.0 0.0 0.00 0.00 0.00 99 1011.6
20260508080454 2 165 0.0 0.0 0.00 0.00 0.00 99 1011.5
20260508075951 1 165 0.0 0.0 0.00 0.00 0.00 99 1011.5
20260508075448 2 165 0.0 0.0 0.00 0.00 0.00 99 1011.7
20260508074945 2 165 0.0 0.0 0.00 0.00 0.00 99 1011.5
20260508074443 2 165 0.0 0.0 0.00 0.00 0.00 99 1011.4
20260508073940 2 165 0.0 0.0 0.00 0.00 0.00 99 1011.3
20260508073437 2 165 0.0 0.0 0.00 0.00 0.00 99 1011.5
20260508072934 2 164 0.0 0.0 0.00 0.00 0.00 99 1011.3
20260508072430 2 145 0.0 0.0 0.00 0.00 0.00 99 1011.5
20260508071927 2 145 0.0 0.0 0.00 0.00 0.00 99 1011.6
20260508071425 2 145 0.0 0.0 0.00 0.00 0.00 99 1011.4
20260508070923 2 139 0.0 0.0 0.00 0.00 0.00 99 1011.4
20260508070421 2 165 0.0 0.0 0.00 0.00 0.00 99 1011.6
20260508065918 2 218 0.0 0.0 0.00 0.00 0.00 99 1011.5
20260508065416 2 218 0.0 0.0 0.00 0.00 0.00 99 1011.5
20260508064914 2 219 0.0 0.0 0.00 0.00 0.00 99 1011.5
20260508064411 2 219 0.0 0.0 0.00 0.00 0.00 99 1011.6
20260508063909 2 219 0.0 0.0 0.00 0.00 0.00 99 1011.5
20260508063406 2 219 0.0 0.0 0.00 0.00 0.00 99 1011.5
20260508062903 2 219 0.0 0.0 0.00 0.00 0.00 99 1011.7
20260508062401 2 219 0.0 0.0 0.00 0.00 0.00 99 1011.6
20260508061858 2 219 0.0 0.0 0.00 0.00 0.00 99 1011.6
20260508061355 2 218 0.0 0.0 0.00 0.00 0.00 99 1011.5
20260508060851 3 219 0.0 0.0 0.00 0.00 0.00 99 1011.8
20260508060349 3 219 0.0 0.0 0.00 0.00 0.00 99 1011.8
20260508055844 2 219 0.0 0.0 0.00 0.00 0.00 98 1011.7
20260508055342 3 219 0.0 0.0 0.00 0.00 0.00 98 1011.7
20260508054838 3 218 0.0 0.0 0.00 0.00 0.00 98 1011.7
20260508054336 3 218 0.0 0.0 0.00 0.00 0.00 98 1011.6
20260508053832 3 218 0.0 0.0 0.00 0.00 0.00 98 1011.7
20260508053330 3 218 0.0 0.0 0.00 0.00 0.00 98 1011.6
20260508052827 3 218 0.0 0.0 0.00 0.00 0.00 98 1011.7
20260508052324 3 218 0.0 0.0 0.00 0.00 0.00 98 1011.6
20260508051821 3 218 0.0 0.0 0.00 0.00 0.00 98 1011.6
20260508051316 3 219 0.0 0.0 0.00 0.00 0.00 97 1011.8
20260508050812 3 219 0.0 0.0 0.00 0.00 0.00 97 1011.5
20260508050310 3 219 0.0 0.0 0.00 0.00 0.00 97 1011.5
20260508045805 3 219 0.0 0.0 0.00 0.00 0.00 96 1011.6
20260508045306 3 219 0.0 0.0 0.00 0.00 0.00 97 1011.6
20260508044801 4 219 0.0 0.0 0.00 0.00 0.00 97 1011.8
20260508044257 4 219 0.0 0.0 0.00 0.00 0.00 96 1011.5
20260508043753 4 219 0.0 0.0 0.00 0.00 0.00 96 1011.7
20260508043251 3 219 0.0 0.0 0.00 0.00 0.00 97 1011.6
20260508042747 4 219 0.0 0.0 0.00 0.00 0.00 96 1011.7
20260508042245 4 219 0.0 0.0 0.00 0.00 0.00 96 1011.5
20260508041741 5 219 0.0 0.0 0.00 0.00 0.00 96 1011.5
20260508041238 5 219 0.0 0.0 0.00 0.00 0.00 96 1011.7
20260508040734 4 219 0.0 0.0 0.00 0.00 0.00 96 1011.6
20260508040232 3 220 0.0 0.0 0.00 0.00 0.00 95 1011.8
20260508035729 3 220 0.0 0.0 0.00 0.00 0.00 94 1011.5
20260508035226 4 220 0.0 0.0 0.00 0.00 0.00 94 1011.4
20260508034723 4 219 0.0 0.0 0.00 0.00 0.00 94 1011.6
20260508034221 4 220 0.0 0.0 0.00 0.00 0.00 93 1011.7
20260508033717 4 220 0.0 0.0 0.00 0.00 0.00 93 1011.6
20260508033216 5 220 0.0 0.0 0.00 0.00 0.00 92 1011.7
20260508032713 5 220 0.0 0.0 0.00 0.00 0.00 92 1011.7
20260508032209 5 219 0.0 0.0 0.00 0.00 0.00 91 1011.6
20260508031707 5 219 0.0 0.0 0.00 0.00 0.00 90 1011.7
20260508031203 5 219 0.0 0.0 0.00 0.00 0.00 90 1011.5
20260508030659 5 219 0.0 0.0 0.00 0.00 0.00 89 1011.6
20260508030157 6 219 0.0 0.0 0.00 0.00 0.00 89 1011.5
20260508025653 6 220 0.0 0.0 0.00 0.00 0.00 89 1011.6
20260508025150 6 220 0.0 0.0 0.00 0.00 0.00 88 1011.5
20260508024646 5 219 0.0 0.0 0.00 0.00 0.00 88 1011.4
20260508024143 5 219 0.0 0.0 0.00 0.00 0.00 87 1011.2
20260508023639 6 219 0.0 0.0 0.00 0.00 0.00 85 1011.1
20260508023137 6 219 0.0 0.0 0.00 0.00 0.00 85 1011.4
20260508022633 6 219 0.0 0.0 0.00 0.00 0.00 83 1010.9
20260508022130 6 219 0.0 0.0 0.00 0.00 0.00 82 1010.9
20260508021626 7 220 0.0 0.0 0.00 0.00 0.00 80 1011.0
20260508021122 7 218 0.0 0.0 0.00 0.00 0.00 80 1011.0
20260508020620 7 223 0.0 0.0 0.00 0.00 0.00 80 1010.7
20260508020117 7 243 0.0 0.0 0.00 0.00 0.00 80 1010.7
20260508015615 8 266 0.0 1.6 0.00 0.00 0.00 78 1010.8
20260508015111 8 224 1.6 1.6 0.00 0.00 0.00 77 1010.6
20260508014607 8 244 0.0 0.0 0.00 0.00 0.00 76 1010.5
20260508014104 8 240 0.0 0.0 0.00 0.00 0.00 73 1010.3
20260508013600 8 240 0.0 0.0 0.00 0.00 0.00 72 1010.5
20260508013057 9 240 0.0 0.0 0.00 0.00 0.00 69 1010.4
20260508012555 9 227 0.0 1.6 0.00 0.00 0.00 67 1010.2
20260508012052 9 245 0.0 0.0 0.00 0.00 0.00 66 1010.3
20260508011550 10 246 0.0 1.6 0.00 0.00 0.00 64 1010.1
20260508011047 10 191 1.6 1.6 0.00 0.00 0.00 63 1010.0
20260508010544 10 173 1.6 1.6 0.00 0.00 0.00 63 1010.0
20260508010041 10 204 0.0 1.6 0.00 0.00 0.00 61 1009.8
20260508005538 11 233 0.0 0.0 0.00 0.00 0.00 59 1009.8
20260508005034 11 243 1.6 1.6 0.00 0.00 0.00 57 1009.8
20260508004530 12 248 1.6 1.6 0.00 0.00 0.00 58 1009.5
20260508004027 12 299 0.0 0.0 0.00 0.00 0.00 56 1009.7
20260508003524 12 274 0.0 1.6 0.00 0.00 0.00 53 1009.7
20260508003022 12 14 0.0 0.0 0.00 0.00 0.00 49 1009.6
20260508002517 13 21 0.0 0.0 0.00 0.00 0.00 47 1009.5
20260508002015 13 7 0.0 0.0 0.00 0.00 0.00 46 1009.4
20260508001510 15 320 0.0 0.0 0.00 0.00 0.00 44 1009.5
20260508001007 15 314 1.6 3.2 0.00 0.00 0.00 42 1009.3
20260508000503 15 303 1.6 1.6 0.00 0.00 0.00 42 1009.1
20260508000000 15 308 1.6 1.6 0.00 0.00 0.00 40 1009.2
20260507235456 15 317 4.8 4.8 0.00 0.00 0.00 40 1009.2
20260507234954 16 319 4.8 4.8 0.00 0.00 0.00 40 1009.2
20260507234451 16 309 9.7 11.3 0.00 0.00 0.00 37 1009.1
20260507233949 16 316 4.8 4.8 0.00 0.00 0.00 37 1009.0
20260507233444 16 300 6.4 8.0 0.00 0.00 0.00 39 1009.0
20260507232943 16 315 8.0 11.3 0.00 0.00 0.00 41 1008.9
20260507232438 16 320 8.0 9.7 0.00 0.00 0.00 39 1008.8
20260507231936 16 295 9.7 12.9 0.00 0.00 0.00 37 1008.8
20260507231432 16 312 8.0 9.7 0.00 0.00 0.00 38 1008.7
20260507230929 17 344 4.8 4.8 0.00 0.00 0.00 38 1008.8
20260507230426 17 338 4.8 4.8 0.00 0.00 0.00 39 1008.8
20260507225926 17 303 6.4 9.7 0.00 0.00 0.00 38 1008.8
20260507225423 17 292 8.0 9.7 0.00 0.00 0.00 38 1008.7
20260507224919 17 317 8.0 9.7 0.00 0.00 0.00 39 1008.9
20260507224415 17 338 3.2 4.8 0.00 0.00 0.00 41 1008.7
20260507223912 17 316 14.5 17.7 0.00 0.00 0.00 38 1008.6
20260507223408 17 326 9.7 14.5 0.00 0.00 0.00 39 1008.8
20260507222905 17 330 8.0 11.3 0.00 0.00 0.00 43 1008.5
20260507222402 17 333 6.4 9.7 0.00 0.00 0.00 42 1008.4
20260507221859 17 330 11.3 16.1 0.00 0.00 0.00 43 1008.5
20260507221355 17 333 12.9 16.1 0.00 0.00 0.00 41 1008.6
20260507220851 17 255 8.0 12.9 0.00 0.00 0.00 41 1008.5
20260507220349 17 320 11.3 14.5 0.00 0.00 0.00 43 1008.1
20260507215846 17 295 9.7 11.3 0.00 0.00 0.00 42 1008.3
20260507215342 17 340 11.3 12.9 0.00 0.00 0.00 43 1008.4
20260507214840 17 313 4.8 8.0 0.00 0.00 0.00 45 1008.1
20260507214338 17 292 8.0 9.7 0.00 0.00 0.00 43 1008.3
20260507213832 17 308 4.8 8.0 0.00 0.00 0.00 44 1008.2
20260507213329 17 317 9.7 12.9 0.00 0.00 0.00 43 1008.1
20260507212826 17 279 6.4 8.0 0.00 0.00 0.00 42 1008.0
20260507212322 17 233 4.8 9.7 0.00 0.00 0.00 43 1008.1
20260507211818 17 294 11.3 12.9 0.00 0.00 0.00 43 1008.1
20260507211315 17 290 19.3 25.7 0.00 0.00 0.00 41 1008.0
20260507210812 17 304 8.0 11.3 0.00 0.00 0.00 44 1008.0
20260507210309 18 314 12.9 16.1 0.00 0.00 0.00 44 1007.9
20260507205805 17 302 6.4 8.0 0.00 0.00 0.00 45 1007.8
20260507205306 17 308 9.7 11.3 0.00 0.00 0.00 44 1008.0
20260507204758 17 320 9.7 11.3 0.00 0.00 0.00 46 1007.5
20260507204256 17 347 9.7 12.9 0.00 0.00 0.00 46 1007.6
20260507203754 17 290 4.8 8.0 0.00 0.00 0.00 47 1007.8
20260507203252 18 320 11.3 12.9 0.00 0.00 0.00 43 1007.6
20260507202748 18 329 8.0 11.3 0.00 0.00 0.00 44 1007.7
20260507202243 17 260 14.5 17.7 0.00 0.00 0.00 44 1007.6
20260507201738 17 297 11.3 12.9 0.00 0.00 0.00 45 1007.8
20260507201235 17 334 8.0 12.9 0.00 0.00 0.00 44 1008.0
20260507200732 17 303 8.0 11.3 0.00 0.00 0.00 49 1007.9
20260507200228 16 353 6.4 9.7 0.00 0.00 0.00 49 1008.2
20260507195724 16 316 9.7 11.3 0.00 0.00 0.00 48 1008.2
20260507195222 16 348 12.9 14.5 0.00 0.00 0.00 47 1008.1
20260507194719 16 313 4.8 8.0 0.00 0.00 0.00 47 1008.1
20260507194215 17 308 6.4 8.0 0.00 0.00 0.00 51 1008.0
20260507193712 16 256 8.0 9.7 0.00 0.00 0.00 47 1008.1
20260507193209 17 280 9.7 11.3 0.00 0.00 0.00 48 1008.2
20260507192704 17 282 16.1 17.7 0.00 0.00 0.00 46 1008.4
20260507192202 16 249 8.0 9.7 0.00 0.00 0.00 47 1008.2
20260507191657 17 261 11.3 14.5 0.00 0.00 0.00 47 1008.4
20260507191155 17 287 16.1 17.7 0.00 0.00 0.00 46 1008.1
20260507190651 17 238 12.9 20.9 0.00 0.00 0.00 44 1008.4
20260507190150 16 287 8.0 9.7 0.00 0.00 0.00 51 1008.6
20260507185648 16 308 9.7 12.9 0.00 0.00 0.00 49 1008.7
20260507185144 17 298 12.9 16.1 0.00 0.00 0.00 49 1008.7
20260507184642 17 243 4.8 8.0 0.00 0.00 0.00 49 1008.6
20260507184140 17 335 6.4 8.0 0.00 0.00 0.00 54 1008.6
20260507183636 16 9 11.3 12.9 0.00 0.00 0.00 53 1008.7
20260507183133 16 13 4.8 8.0 0.00 0.00 0.00 52 1008.9
20260507182630 15 329 8.0 9.7 0.00 0.00 0.00 52 1008.5
20260507182126 16 346 8.0 9.7 0.00 0.00 0.00 50 1008.5
20260507181622 16 269 6.4 9.7 0.00 0.00 0.00 55 1008.6
20260507181118 16 305 4.8 8.0 0.00 0.00 0.00 54 1008.6
20260507180615 17 287 9.7 11.3 0.00 0.00 0.00 49 1008.7
20260507180113 17 263 8.0 11.3 0.00 0.00 0.00 51 1008.8
20260507175608 17 292 9.7 12.9 0.00 0.00 0.00 52 1008.9
20260507175106 16 239 12.9 14.5 0.00 0.00 0.00 47 1008.7
20260507174603 15 271 8.0 9.7 0.00 0.00 0.00 56 1008.9
20260507174101 15 317 8.0 11.3 0.00 0.00 0.00 55 1009.1
20260507173557 16 290 12.9 14.5 0.00 0.00 0.00 53 1009.0
20260507173055 16 335 6.4 9.7 0.00 0.00 0.00 54 1008.7
20260507172550 16 322 12.9 14.5 0.00 0.00 0.00 54 1009.1
20260507172048 16 253 11.3 14.5 0.00 0.00 0.00 53 1008.9
20260507171543 16 296 4.8 4.8 0.00 0.00 0.00 58 1009.1
20260507171040 16 317 11.3 11.3 0.00 0.00 0.00 55 1009.1
20260507170537 15 285 9.7 11.3 0.00 0.00 0.00 54 1009.3
20260507170034 16 297 9.7 14.5 0.00 0.00 0.00 54 1009.1
20260507165529 16 299 8.0 11.3 0.00 0.00 0.00 55 1009.3
20260507165026 16 301 3.2 3.2 0.00 0.00 0.00 58 1009.4
20260507164522 16 308 3.2 3.2 0.00 0.00 0.00 56 1009.4
20260507164020 16 338 9.7 12.9 0.00 0.00 0.00 57 1009.4
20260507163517 15 324 3.2 3.2 0.00 0.00 0.00 60 1009.3
20260507163015 15 296 11.3 11.3 0.00 0.00 0.00 59 1009.4
20260507162509 15 343 1.6 1.6 0.00 0.00 0.00 62 1009.4
20260507162007 15 247 3.2 3.2 0.00 0.00 0.00 57 1009.6
20260507161503 15 227 4.8 4.8 0.00 0.00 0.00 61 1009.8
20260507161000 15 42 3.2 4.8 0.00 0.00 0.00 57 1009.6
20260507160455 15 325 3.2 3.2 0.00 0.00 0.00 61 1009.7
20260507155951 15 354 4.8 4.8 0.00 0.00 0.00 59 1009.8
20260507155447 15 356 4.8 8.0 0.00 0.00 0.00 60 1009.7
20260507154945 15 345 6.4 8.0 0.00 0.00 0.00 58 1009.6
20260507154441 15 286 4.8 4.8 0.00 0.00 0.00 56 1010.1
20260507153938 16 310 1.6 4.8 0.00 0.00 0.00 56 1009.8
20260507153435 14 23 0.0 0.0 0.00 0.00 0.00 60 1009.7
20260507152931 13 330 1.6 1.6 0.00 0.00 0.00 59 1009.7
20260507152428 14 316 4.8 4.8 0.00 0.00 0.00 60 1009.7
20260507151924 14 55 1.6 1.6 0.00 0.00 0.00 57 1009.6
20260507151420 14 29 6.4 9.7 0.00 0.00 0.00 57 1009.5
20260507150917 15 295 4.8 8.0 0.00 0.00 0.00 60 1009.7
20260507150414 15 267 1.6 1.6 0.00 0.00 0.00 58 1009.7
20260507145911 14 260 6.4 8.0 0.00 0.00 0.00 58 1009.7
20260507145406 15 338 9.7 11.3 0.00 0.00 0.00 57 1009.8
20260507144904 15 45 3.2 4.8 0.00 0.00 0.00 61 1009.7
20260507144401 14 114 8.0 9.7 0.00 0.00 0.00 57 1009.8
20260507143857 14 11 4.8 4.8 0.00 0.00 0.00 57 1009.6
20260507143355 14 306 4.8 8.0 0.00 0.00 0.00 59 1009.7
20260507142851 14 22 1.6 1.6 0.00 0.00 0.00 60 1009.8
20260507142347 15 326 4.8 9.7 0.00 0.00 0.00 59 1010.1
20260507141844 14 13 6.4 8.0 0.00 0.00 0.00 60 1010.0